Home > Weather > Guimarães > Past weeks

Flag for Portugal Past Weather in Guimarães, Portugal — Yesterday and Last 2 Weeks

Now
58 °F

Cool.


Feels Like: 58 °F
Forecast: 49 / 67 °F
Wind: 1 mph from Southwest

Location: Porto / Pedras Rubras

Current Time: May 25, 2016 at 6:23:25 AM

Latest Report: May 25, 2016 at 4:00 AM


Visibility: N/A

Pressure: 29.84 "Hg

Humidity: 88%

Dew Point: 55 °F

Location of GuimarãesLocation

Past Weather in Guimarães — Graph

°F

Guimarães Temperature Yesterday

Maximum temperature yesterday: 65 °F (at 3:00 PM)
Minimum temperature yesterday: 56 °F (at 8:00 AM)
Average temperature yesterday: 61 °F

High & Low Weather Summary for the Past Weeks

 TemperatureHumidityPressure
High73 °F (May 23, 1:00 PM)93% (May 20, 9:00 AM)30.29 "Hg (May 20, 9:00 AM)
Low50 °F (May 23, 2:00 AM)28% (May 23, 1:00 PM)29.54 "Hg (May 10, 5:00 PM)
Average58 °F78%30.02 "Hg
* Reported May 10 4:00 AM — May 25 4:00 AM, Guimarães, Weather by CustomWeather, © 2016

Note: Actual official high and low records may vary slightly from our data, if they occured in-between our weather recording intervals... More about our weather records

Advertising

Guimarães Weather History for the Previous 24 Hours

Scroll right to see more
 ConditionsComfort  
Time TempWeatherWind HumidityBarometerVisibility
4:00 AM
Wed, May 25
58 °FCool.1 mph88%29.84 "HgN/A
3:00 AM59 °FCool.3 mph88%29.84 "HgN/A
2:00 AM59 °FCool.3 mph89%29.84 "HgN/A
1:00 AM59 °FCool.3 mph89%29.85 "HgN/A
12:00 AM59 °FCool.5 mph89%29.85 "HgN/A
11:00 PM
Tue, May 24
60 °FCool.3 mph88%29.85 "HgN/A
10:00 PM60 °FCool.3 mph88%29.85 "HgN/A
9:00 PM60 °FCool.5 mph85%29.84 "HgN/A
8:00 PM61 °FCool.5 mph84%29.85 "HgN/A
7:00 PM61 °FCool.5 mph85%29.85 "HgN/A
6:00 PM62 °FCool.6 mph82%29.86 "HgN/A
5:00 PM65 °FMild.6 mph77%29.86 "HgN/A
4:00 PM63 °FMild.7 mph79%29.87 "HgN/A
3:00 PM65 °FMild.6 mph76%29.87 "HgN/A
2:00 PM64 °FMild.7 mph84%29.87 "HgN/A
1:00 PM63 °FMild.6 mph83%29.87 "HgN/A
12:00 PM61 °FCool.6 mph89%29.87 "HgN/A
11:00 AM58 °FCool.8 mph91%29.85 "HgN/A
10:00 AM57 °FCool.5 mph91%29.85 "HgN/A
9:00 AM56 °FCool.5 mph90%29.87 "HgN/A
8:00 AM56 °FCool.3 mph86%29.88 "HgN/A
7:00 AM57 °FCool.3 mph85%29.88 "HgN/A
6:00 AM58 °FCool.6 mph78%29.89 "HgN/A
Weather by CustomWeather, © 2016

See weather overviewHow to use our weather pages